| time (UTC) | temp C | wind direction | speed KPH | gust KPH | rain 1hr cm | rain 24hr cm | rain mn cm | humidity % | barometer mb |
| 20260506005517 | 17 | 263 | 3.2 | 14.5 | 0.00 | 0.05 | 0.05 | 79 | 1023.2 |
| 20260506003802 | 16 | 263 | 4.8 | 12.9 | 0.00 | 0.05 | 0.05 | 83 | 1023.3 |
| 20260506003245 | 16 | 263 | 6.4 | 17.7 | 0.00 | 0.05 | 0.05 | 85 | 1023.3 |
| 20260506002734 | 16 | 263 | 6.4 | 17.7 | 0.00 | 0.05 | 0.05 | 86 | 1023.3 |
| 20260506002215 | 15 | 263 | 4.8 | 17.7 | 0.00 | 0.05 | 0.05 | 87 | 1023.3 |
| 20260506001708 | 15 | 263 | 1.6 | 17.7 | 0.00 | 0.05 | 0.05 | 88 | 1023.3 |
| 20260506001204 | 15 | 263 | 3.2 | 9.7 | 0.00 | 0.05 | 0.05 | 88 | 1023.3 |
| 20260506000656 | 15 | 263 | 3.2 | 14.5 | 0.00 | 0.05 | 0.05 | 89 | 1023.3 |
| 20260506000152 | 15 | 263 | 3.2 | 14.5 | 0.00 | 0.05 | 0.05 | 89 | 1023.3 |
| 20260505235654 | 15 | 263 | 4.8 | 14.5 | 0.00 | 0.05 | 0.05 | 89 | 1023.3 |
| 20260505235200 | 15 | 263 | 3.2 | 14.5 | 0.00 | 0.05 | 0.05 | 89 | 1023.3 |
| 20260505234050 | 15 | 263 | 0.0 | 3.2 | 0.00 | 0.05 | 0.05 | 90 | 1023.3 |
| 20260505233534 | 15 | 263 | 0.0 | 0.0 | 0.00 | 0.05 | 0.05 | 90 | 1023.3 |
| 20260505231801 | 14 | 263 | 0.0 | 4.8 | 0.00 | 0.05 | 0.05 | 90 | 1023.3 |
| 20260505231242 | 14 | 263 | 0.0 | 0.0 | 0.00 | 0.05 | 0.05 | 90 | 1023.3 |
| 20260505230723 | 14 | 263 | 0.0 | 0.0 | 0.00 | 0.05 | 0.05 | 89 | 1023.3 |
| 20260505230205 | 14 | 263 | 0.0 | 4.8 | 0.00 | 0.05 | 0.05 | 90 | 1023.3 |
| 20260505225653 | 13 | 263 | 0.0 | 0.0 | 0.00 | 0.05 | 0.05 | 89 | 1023.2 |
| 20260505225152 | 13 | 263 | 1.6 | 4.8 | 0.00 | 0.05 | 0.05 | 89 | 1023.2 |
| 20260505224634 | 13 | 263 | 1.6 | 4.8 | 0.00 | 0.05 | 0.05 | 89 | 1023.2 |
| 20260505224120 | 13 | 263 | 1.6 | 8.0 | 0.00 | 0.05 | 0.05 | 89 | 1023.1 |
| 20260505222939 | 13 | 263 | 1.6 | 8.0 | 0.00 | 0.05 | 0.05 | 88 | 1023.1 |
| 20260505222436 | 13 | 263 | 1.6 | 4.8 | 0.00 | 0.05 | 0.05 | 88 | 1023.0 |
| 20260505221938 | 13 | 263 | 1.6 | 4.8 | 0.00 | 0.05 | 0.05 | 88 | 1023.0 |
| 20260505221426 | 13 | 263 | 1.6 | 4.8 | 0.00 | 0.05 | 0.05 | 88 | 1023.0 |
| 20260505220907 | 13 | 263 | 0.0 | 4.8 | 0.00 | 0.05 | 0.05 | 87 | 1022.9 |
| 20260505220413 | 13 | 263 | 0.0 | 3.2 | 0.08 | 0.05 | 0.05 | 87 | 1022.9 |
| 20260505215244 | 13 | 263 | 0.0 | 4.8 | 0.08 | 0.05 | 0.05 | 86 | 1022.8 |
| 20260505214103 | 13 | 263 | 1.6 | 4.8 | 0.08 | 0.03 | 0.03 | 85 | 1022.7 |
| 20260505212955 | 13 | 263 | 0.0 | 1.6 | 0.00 | 0.00 | 0.00 | 84 | 1022.7 |
| 20260505212450 | 13 | 263 | 0.0 | 0.0 | 0.00 | 0.00 | 0.00 | 84 | 1022.7 |
| 20260505211952 | 13 | 263 | 0.0 | 0.0 | 0.00 | 0.00 | 0.00 | 84 | 1022.7 |
| 20260505211446 | 13 | 263 | 0.0 | 4.8 | 0.00 | 0.00 | 0.00 | 84 | 1022.7 |
| 20260505210941 | 13 | 263 | 0.0 | 4.8 | 0.00 | 0.00 | 0.00 | 84 | 1022.6 |
| 20260505210431 | 13 | 263 | 0.0 | 4.8 | 0.00 | 0.00 | 0.00 | 84 | 1022.6 |
| 20260505205315 | 13 | 263 | 0.0 | 3.2 | 0.00 | 0.00 | 0.00 | 84 | 1022.5 |
| 20260505204817 | 13 | 263 | 0.0 | 4.8 | 0.00 | 0.00 | 0.00 | 84 | 1022.5 |
| 20260505203648 | 13 | 263 | 1.6 | 4.8 | 0.00 | 0.00 | 0.00 | 83 | 1022.5 |
| 20260505203146 | 13 | 263 | 0.0 | 4.8 | 0.00 | 0.00 | 0.00 | 84 | 1022.5 |
| 20260505202033 | 13 | 263 | 0.0 | 3.2 | 0.00 | 0.00 | 0.00 | 83 | 1022.5 |
| 20260505201526 | 13 | 263 | 0.0 | 3.2 | 0.00 | 0.00 | 0.00 | 83 | 1022.5 |
| 20260505201013 | 13 | 263 | 0.0 | 0.0 | 0.00 | 0.00 | 0.00 | 83 | 1022.5 |
| 20260505200512 | 13 | 263 | 0.0 | 4.8 | 0.00 | 0.00 | 0.00 | 83 | 1022.5 |
| 20260505200016 | 13 | 263 | 0.0 | 4.8 | 0.00 | 0.00 | 0.00 | 83 | 1022.5 |
| 20260505195515 | 13 | 263 | 0.0 | 4.8 | 0.00 | 0.00 | 0.00 | 83 | 1022.4 |
| 20260505194406 | 14 | 263 | 0.0 | 3.2 | 0.00 | 0.03 | 0.00 | 83 | 1022.4 |
| 20260505193854 | 14 | 263 | 0.0 | 4.8 | 0.00 | 0.03 | 0.00 | 83 | 1022.4 |
| 20260505193335 | 14 | 263 | 1.6 | 4.8 | 0.00 | 0.03 | 0.00 | 83 | 1022.4 |
| 20260505192818 | 14 | 263 | 1.6 | 4.8 | 0.00 | 0.03 | 0.00 | 83 | 1022.4 |
| 20260505191006 | 14 | 263 | 0.0 | 4.8 | 0.00 | 0.03 | 0.00 | 83 | 1022.4 |
| 20260505190500 | 14 | 263 | 1.6 | 4.8 | 0.00 | 0.03 | 0.00 | 83 | 1022.4 |
| 20260505190003 | 13 | 263 | 1.6 | 4.8 | 0.00 | 0.03 | 0.00 | 83 | 1022.4 |
| 20260505185444 | 13 | 263 | 1.6 | 4.8 | 0.00 | 0.03 | 0.00 | 83 | 1022.5 |
| 20260505184951 | 13 | 263 | 0.0 | 4.8 | 0.00 | 0.03 | 0.00 | 83 | 1022.5 |
| 20260505184442 | 13 | 263 | 0.0 | 3.2 | 0.00 | 0.03 | 0.00 | 83 | 1022.5 |
| 20260505183315 | 13 | 263 | 0.0 | 3.2 | 0.00 | 0.03 | 0.00 | 83 | 1022.5 |
| 20260505181520 | 13 | 263 | 0.0 | 3.2 | 0.00 | 0.03 | 0.00 | 84 | 1022.4 |
| 20260505181027 | 13 | 263 | 0.0 | 3.2 | 0.00 | 0.03 | 0.00 | 84 | 1022.5 |
| 20260505180527 | 13 | 263 | 1.6 | 3.2 | 0.00 | 0.03 | 0.00 | 84 | 1022.5 |
| 20260505180016 | 13 | 263 | 0.0 | 3.2 | 0.00 | 0.03 | 0.00 | 84 | 1022.5 |
| 20260505175523 | 13 | 263 | 0.0 | 3.2 | 0.00 | 0.03 | 0.00 | 84 | 1022.6 |
| 20260505174404 | 13 | 263 | 0.0 | 3.2 | 0.00 | 0.13 | 0.00 | 84 | 1022.7 |
| 20260505173244 | 13 | 263 | 0.0 | 3.2 | 0.00 | 0.13 | 0.00 | 84 | 1022.7 |
| 20260505172731 | 13 | 263 | 0.0 | 3.2 | 0.00 | 0.13 | 0.00 | 84 | 1022.7 |
| 20260505172240 | 13 | 263 | 0.0 | 6.4 | 0.00 | 0.13 | 0.00 | 84 | 1022.7 |
| 20260505171727 | 13 | 263 | 0.0 | 6.4 | 0.00 | 0.13 | 0.00 | 84 | 1022.7 |
| 20260505171209 | 13 | 263 | 0.0 | 6.4 | 0.00 | 0.13 | 0.00 | 84 | 1022.8 |
| 20260505170650 | 13 | 263 | 0.0 | 6.4 | 0.00 | 0.13 | 0.00 | 84 | 1022.8 |
| 20260505165515 | 13 | 263 | 0.0 | 1.6 | 0.00 | 0.13 | 0.00 | 84 | 1022.8 |
| 20260505164322 | 13 | 263 | 0.0 | 3.2 | 0.00 | 0.13 | 0.00 | 84 | 1023.1 |
| 20260505163822 | 13 | 263 | 0.0 | 3.2 | 0.00 | 0.13 | 0.00 | 84 | 1023.1 |
| 20260505163317 | 13 | 263 | 0.0 | 0.0 | 0.00 | 0.13 | 0.00 | 84 | 1023.1 |
| 20260505162811 | 13 | 263 | 0.0 | 1.6 | 0.00 | 0.13 | 0.00 | 84 | 1023.2 |
| 20260505162307 | 13 | 263 | 0.0 | 1.6 | 0.00 | 0.13 | 0.00 | 84 | 1023.2 |
| 20260505161753 | 13 | 263 | 0.0 | 1.6 | 0.00 | 0.13 | 0.00 | 84 | 1023.2 |
| 20260505161245 | 13 | 263 | 0.0 | 1.6 | 0.00 | 0.13 | 0.00 | 84 | 1023.3 |
| 20260505160123 | 14 | 263 | 0.0 | 0.0 | 0.00 | 0.20 | 0.00 | 84 | 1023.3 |
| 20260505153223 | 14 | 263 | 0.0 | 1.6 | 0.00 | 0.20 | 0.00 | 84 | 1023.4 |
| 20260505152732 | 14 | 263 | 0.0 | 0.0 | 0.00 | 0.20 | 0.00 | 84 | 1023.5 |
| 20260505152216 | 14 | 263 | 0.0 | 3.2 | 0.00 | 0.23 | 0.00 | 84 | 1023.5 |
| 20260505151702 | 13 | 263 | 0.0 | 3.2 | 0.00 | 0.25 | 0.00 | 84 | 1023.5 |
| 20260505151149 | 14 | 263 | 0.0 | 1.6 | 0.00 | 0.25 | 0.00 | 84 | 1023.7 |
| 20260505150643 | 13 | 263 | 0.0 | 3.2 | 0.00 | 0.25 | 0.00 | 83 | 1023.7 |
| 20260505150134 | 14 | 263 | 0.0 | 3.2 | 0.00 | 0.25 | 0.00 | 84 | 1023.7 |
| 20260505140555 | 14 | 263 | 0.0 | 0.0 | 0.00 | 0.28 | 0.28 | 83 | 1023.8 |
| 20260505125033 | 14 | 263 | 0.0 | 0.0 | 0.00 | 0.28 | 0.28 | 81 | 1024.3 |
| 20260505124537 | 14 | 263 | 0.0 | 0.0 | 0.00 | 0.28 | 0.28 | 81 | 1024.3 |
| 20260505124044 | 14 | 263 | 0.0 | 0.0 | 0.00 | 0.28 | 0.28 | 81 | 1024.3 |
| 20260505123527 | 14 | 263 | 0.0 | 0.0 | 0.00 | 0.28 | 0.28 | 81 | 1024.3 |
| 20260505122420 | 14 | 263 | 0.0 | 0.0 | 0.00 | 0.28 | 0.28 | 80 | 1024.3 |
| 20260505121922 | 14 | 263 | 0.0 | 0.0 | 0.00 | 0.28 | 0.28 | 80 | 1024.3 |
| 20260505121420 | 14 | 263 | 0.0 | 0.0 | 0.00 | 0.28 | 0.28 | 80 | 1024.3 |
| 20260505120919 | 14 | 263 | 0.0 | 0.0 | 0.00 | 0.28 | 0.28 | 80 | 1024.3 |
| 20260505115748 | 14 | 263 | 0.0 | 0.0 | 0.00 | 0.28 | 0.28 | 80 | 1024.3 |
| 20260505115243 | 14 | 263 | 0.0 | 0.0 | 0.00 | 0.28 | 0.28 | 80 | 1024.3 |
| 20260505114740 | 14 | 263 | 0.0 | 0.0 | 0.00 | 0.28 | 0.28 | 80 | 1024.3 |
| 20260505113605 | 14 | 263 | 0.0 | 0.0 | 0.00 | 0.28 | 0.28 | 80 | 1024.3 |
| 20260505112441 | 14 | 263 | 0.0 | 0.0 | 0.00 | 0.28 | 0.28 | 79 | 1024.4 |
| 20260505111926 | 14 | 263 | 0.0 | 0.0 | 0.00 | 0.28 | 0.28 | 79 | 1024.4 |
| 20260505110801 | 14 | 263 | 0.0 | 0.0 | 0.00 | 0.28 | 0.28 | 79 | 1024.4 |
| 20260505110248 | 14 | 263 | 0.0 | 0.0 | 0.00 | 0.28 | 0.28 | 79 | 1024.4 |
| 20260505102213 | 14 | 263 | 0.0 | 0.0 | 0.00 | 0.33 | 0.28 | 79 | 1024.4 |
| 20260505101658 | 14 | 263 | 0.0 | 0.0 | 0.00 | 0.33 | 0.28 | 78 | 1024.4 |
| 20260505101138 | 14 | 263 | 0.0 | 0.0 | 0.00 | 0.33 | 0.28 | 78 | 1024.4 |
| 20260505100624 | 14 | 263 | 0.0 | 0.0 | 0.00 | 0.33 | 0.28 | 78 | 1024.4 |
| 20260505100121 | 14 | 263 | 0.0 | 0.0 | 0.00 | 0.33 | 0.28 | 78 | 1024.4 |
| 20260505095604 | 14 | 263 | 0.0 | 0.0 | 0.00 | 0.33 | 0.28 | 78 | 1024.4 |
| 20260505095055 | 14 | 263 | 0.0 | 0.0 | 0.00 | 0.33 | 0.28 | 78 | 1024.4 |
| 20260505094549 | 15 | 263 | 0.0 | 0.0 | 0.00 | 0.33 | 0.28 | 77 | 1024.4 |
| 20260505094053 | 15 | 263 | 0.0 | 0.0 | 0.00 | 0.33 | 0.28 | 77 | 1024.3 |
| 20260505093555 | 15 | 263 | 0.0 | 0.0 | 0.00 | 0.33 | 0.28 | 77 | 1024.3 |
| 20260505092433 | 15 | 263 | 0.0 | 0.0 | 0.00 | 0.33 | 0.28 | 74 | 1024.2 |
| 20260505091915 | 15 | 263 | 0.0 | 0.0 | 0.00 | 0.33 | 0.28 | 74 | 1024.2 |
| 20260505091413 | 15 | 263 | 0.0 | 3.2 | 0.00 | 0.33 | 0.28 | 74 | 1024.2 |
| 20260505090903 | 15 | 263 | 0.0 | 0.0 | 0.00 | 0.33 | 0.28 | 74 | 1024.0 |
| 20260505085140 | 15 | 263 | 0.0 | 0.0 | 0.00 | 0.33 | 0.28 | 72 | 1023.8 |
| 20260505084632 | 15 | 263 | 0.0 | 0.0 | 0.00 | 0.33 | 0.28 | 72 | 1023.8 |
| 20260505084136 | 15 | 263 | 0.0 | 0.0 | 0.00 | 0.33 | 0.28 | 71 | 1023.7 |
| 20260505083644 | 15 | 263 | 0.0 | 0.0 | 0.00 | 0.33 | 0.28 | 70 | 1023.7 |
| 20260505083131 | 15 | 263 | 0.0 | 0.0 | 0.00 | 0.33 | 0.28 | 70 | 1023.7 |
| 20260505082618 | 15 | 263 | 0.0 | 0.0 | 0.00 | 0.33 | 0.28 | 70 | 1023.5 |
| 20260505081514 | 15 | 263 | 0.0 | 0.0 | 0.00 | 0.33 | 0.28 | 69 | 1023.5 |
| 20260505081021 | 15 | 263 | 0.0 | 3.2 | 0.00 | 0.33 | 0.28 | 69 | 1023.4 |
| 20260505075904 | 16 | 263 | 1.6 | 3.2 | 0.00 | 0.33 | 0.28 | 68 | 1023.3 |
| 20260505075408 | 16 | 263 | 1.6 | 3.2 | 0.00 | 0.33 | 0.28 | 68 | 1023.3 |
| 20260505074855 | 16 | 263 | 1.6 | 3.2 | 0.00 | 0.33 | 0.28 | 67 | 1023.3 |
| 20260505073742 | 16 | 263 | 1.6 | 6.4 | 0.00 | 0.33 | 0.28 | 66 | 1023.3 |
| 20260505073251 | 16 | 263 | 1.6 | 6.4 | 0.00 | 0.33 | 0.28 | 66 | 1023.3 |
| 20260505072759 | 16 | 263 | 3.2 | 6.4 | 0.00 | 0.33 | 0.28 | 66 | 1023.2 |
| 20260505072258 | 16 | 263 | 1.6 | 8.0 | 0.00 | 0.33 | 0.28 | 66 | 1023.2 |
| 20260505071805 | 17 | 263 | 1.6 | 8.0 | 0.00 | 0.33 | 0.28 | 66 | 1023.2 |
| 20260505071307 | 17 | 263 | 1.6 | 8.0 | 0.00 | 0.33 | 0.28 | 65 | 1023.2 |
| 20260505070756 | 17 | 263 | 3.2 | 8.0 | 0.00 | 0.33 | 0.28 | 65 | 1023.2 |
| 20260505070238 | 17 | 263 | 3.2 | 11.3 | 0.00 | 0.33 | 0.28 | 64 | 1023.2 |
| 20260505065725 | 17 | 263 | 3.2 | 11.3 | 0.00 | 0.33 | 0.28 | 64 | 1023.3 |
| 20260505065219 | 17 | 263 | 3.2 | 14.5 | 0.00 | 0.33 | 0.28 | 63 | 1023.3 |
| 20260505064723 | 17 | 263 | 4.8 | 14.5 | 0.00 | 0.33 | 0.28 | 62 | 1023.3 |
| 20260505063620 | 17 | 263 | 6.4 | 14.5 | 0.00 | 0.33 | 0.28 | 60 | 1023.2 |
| 20260505063122 | 17 | 263 | 4.8 | 14.5 | 0.00 | 0.33 | 0.28 | 61 | 1023.2 |
| 20260505062630 | 17 | 263 | 4.8 | 14.5 | 0.00 | 0.33 | 0.28 | 61 | 1023.2 |
| 20260505062124 | 17 | 263 | 4.8 | 14.5 | 0.00 | 0.33 | 0.28 | 61 | 1023.2 |
| 20260505061606 | 17 | 263 | 3.2 | 12.9 | 0.00 | 0.33 | 0.28 | 61 | 1023.2 |
| 20260505061056 | 17 | 263 | 3.2 | 12.9 | 0.00 | 0.33 | 0.28 | 61 | 1023.2 |
| 20260505060540 | 17 | 263 | 3.2 | 12.9 | 0.00 | 0.33 | 0.28 | 62 | 1023.2 |
| 20260505055407 | 17 | 263 | 4.8 | 12.9 | 0.00 | 0.33 | 0.28 | 59 | 1023.1 |
| 20260505054853 | 17 | 263 | 3.2 | 12.9 | 0.00 | 0.33 | 0.28 | 60 | 1023.1 |
| 20260505054402 | 17 | 263 | 4.8 | 14.5 | 0.00 | 0.33 | 0.28 | 62 | 1022.9 |
| 20260505053853 | 17 | 263 | 4.8 | 14.5 | 0.00 | 0.33 | 0.28 | 63 | 1022.9 |
| 20260505053342 | 16 | 263 | 3.2 | 16.1 | 0.00 | 0.33 | 0.28 | 64 | 1022.9 |
| 20260505052828 | 16 | 263 | 3.2 | 16.1 | 0.00 | 0.33 | 0.28 | 63 | 1022.8 |
| 20260505052311 | 16 | 263 | 4.8 | 16.1 | 0.00 | 0.33 | 0.28 | 63 | 1022.8 |
| 20260505051806 | 16 | 263 | 6.4 | 16.1 | 0.00 | 0.33 | 0.28 | 63 | 1022.8 |
| 20260505051314 | 16 | 263 | 4.8 | 14.5 | 0.00 | 0.33 | 0.28 | 63 | 1022.8 |
| 20260505050813 | 16 | 263 | 4.8 | 14.5 | 0.00 | 0.33 | 0.28 | 64 | 1022.8 |
| 20260505041339 | 17 | 263 | 8.0 | 17.7 | 0.00 | 0.33 | 0.28 | 59 | 1022.9 |
| 20260505040834 | 17 | 263 | 6.4 | 17.7 | 0.00 | 0.33 | 0.28 | 60 | 1022.9 |
| 20260505040321 | 17 | 263 | 3.2 | 16.1 | 0.00 | 0.33 | 0.28 | 61 | 1022.9 |
| 20260505035804 | 16 | 263 | 3.2 | 11.3 | 0.00 | 0.33 | 0.28 | 62 | 1023.1 |
| 20260505034628 | 16 | 263 | 3.2 | 9.7 | 0.00 | 0.33 | 0.28 | 64 | 1023.1 |
| 20260505033528 | 16 | 263 | 1.6 | 9.7 | 0.00 | 0.33 | 0.28 | 66 | 1023.2 |
| 20260505033016 | 16 | 263 | 1.6 | 9.7 | 0.00 | 0.33 | 0.28 | 67 | 1023.2 |
| 20260505032503 | 16 | 263 | 1.6 | 9.7 | 0.00 | 0.33 | 0.28 | 69 | 1023.3 |
| 20260505031949 | 16 | 263 | 0.0 | 6.4 | 0.00 | 0.33 | 0.28 | 69 | 1023.3 |
| 20260505031443 | 16 | 263 | 1.6 | 1.6 | 0.00 | 0.33 | 0.28 | 69 | 1023.3 |
| 20260505030927 | 16 | 263 | 3.2 | 9.7 | 0.00 | 0.33 | 0.28 | 69 | 1023.6 |
| 20260505030408 | 16 | 263 | 3.2 | 9.7 | 0.00 | 0.33 | 0.28 | 70 | 1023.6 |
| 20260505023929 | 16 | 263 | 4.8 | 9.7 | 0.00 | 0.33 | 0.28 | 71 | 1023.9 |
| 20260505023411 | 16 | 263 | 4.8 | 9.7 | 0.00 | 0.33 | 0.28 | 71 | 1023.9 |
| 20260505022910 | 16 | 263 | 3.2 | 9.7 | 0.00 | 0.33 | 0.28 | 71 | 1023.9 |
| 20260505022416 | 16 | 263 | 1.6 | 9.7 | 0.00 | 0.33 | 0.28 | 71 | 1023.8 |
| 20260505021920 | 16 | 263 | 3.2 | 9.7 | 0.00 | 0.33 | 0.28 | 69 | 1023.8 |
| 20260505021415 | 16 | 263 | 3.2 | 9.7 | 0.00 | 0.33 | 0.28 | 69 | 1023.8 |
| 20260505020904 | 16 | 263 | 3.2 | 9.7 | 0.00 | 0.33 | 0.28 | 68 | 1023.8 |
| 20260505015738 | 16 | 263 | 4.8 | 9.7 | 0.00 | 0.36 | 0.28 | 69 | 1023.9 |
| 20260505015242 | 16 | 263 | 3.2 | 9.7 | 0.00 | 0.36 | 0.28 | 69 | 1023.9 |
| 20260505014736 | 16 | 263 | 1.6 | 8.0 | 0.00 | 0.36 | 0.28 | 70 | 1023.9 |
| 20260505013616 | 15 | 263 | 1.6 | 4.8 | 0.00 | 0.36 | 0.28 | 72 | 1023.9 |
| 20260505013104 | 15 | 263 | 1.6 | 6.4 | 0.00 | 0.36 | 0.28 | 73 | 1023.9 |
| 20260505012559 | 15 | 263 | 1.6 | 6.4 | 0.00 | 0.36 | 0.28 | 74 | 1023.8 |
| 20260505012043 | 15 | 263 | 1.6 | 6.4 | 0.00 | 0.36 | 0.28 | 75 | 1023.8 |
| 20260505011527 | 15 | 263 | 1.6 | 4.8 | 0.00 | 0.36 | 0.28 | 76 | 1023.8 |
| 20260505011012 | 15 | 263 | 0.0 | 3.2 | 0.00 | 0.36 | 0.28 | 77 | 1023.7 |
| 20260505010516 | 15 | 263 | 0.0 | 3.2 | 0.00 | 0.36 | 0.28 | 78 | 1023.7 |
| 20260505010026 | 15 | 263 | 0.0 | 6.4 | 0.00 | 0.36 | 0.28 | 78 | 1023.7 |